Location: Banios
(43.0451°N, 0.2335°E)
Time: 03:30:41
(UTC+00:00)

Hubble Space Telescope - Visible Passes

Search period start: 16 April 2021 00:00
Search period end: 26 April 2021 00:00
Orbit: 535 x 539 km, 28.5° (Epoch: 15 April)

Date Brightness Start Highest point End Pass type
(mag) Time Alt. Az. Time Alt. Az. Time Alt. Az.
23 Apr 3.0 20:13:21 10° SSW 20:14:11 11° S 20:14:20 10° S visible
24 Apr 3.0 20:02:22 10° SSW 20:03:08 10° S 20:03:54 10° S visible
25 Apr 3.1 19:51:42 10° S 19:52:05 10° S 19:52:28 10° S visible
